This demonstration page uses our WeatherBlox Daily Observations layout. Learn more.

Left ArrowRight Arrow

39.92423, -83.80882

Hourly Observations for January 21, 2019

Temp ( °F °C ) Dew Point ( °F °C ) Humidity (%) Winds ( mph kmh ) Pressure ( in mb ) Visibility ( mi km ) Precip ( " mm )
12:56 am 00:56 Clear N/A -3 -19.4 87 87 WNW 5 7 30.43 1031 10 16 N/A
1:56 am 01:56 Clear -2 -18.9 -5 -20.6 87 87 WNW 5 7 30.44 1031 10 16 N/A
2:56 am 02:56 Clear -3 -19.4 -6 -21.1 86 86 W 5 7 30.46 1031 10 16 N/A
3:56 am 03:56 Clear -4 -20 -6 -21.1 91 91 N 5 7 30.46 1032 10 16 N/A
4:56 am 04:56 Clear -3 -19.4 -6 -21.1 86 86 NW 5 7 30.49 1032 10 16 N/A
5:56 am 05:56 Clear -3 -19.4 -6 -21.1 86 86 NW 5 7 30.51 1033 10 16 N/A
6:56 am 06:56 Clear -5 -20.6 -8 -22.2 87 87 N N/A 30.54 1034 10 16 N/A
7:56 am 07:56 Sunny -6 -21.1 -9 -22.8 86 86 N N/A 30.58 1036 10 16 N/A
8:56 am 08:56 Sunny -5 -20.6 -8 -22.2 87 87 N N/A 30.60 1036 10 16 N/A
9:56 am 09:56 Sunny 1 -17.2 -4 -20 79 79 N N/A 30.64 1038 10 16 N/A
10:56 am 10:56 Sunny 2 -16.7 -4 -20 76 76 N N/A 30.66 1038 10 16 N/A
11:56 am 11:56 Sunny 3 -16.1 -4 -20 72 72 N N/A 30.66 1038 10 16 N/A
12:56 pm 12:56 Sunny 5 -15 -2 -18.9 72 72 SE 5 7 30.64 1038 10 16 0.01 0.25
1:56 pm 13:56 Sunny 7 -13.9 -1 -18.3 70 70 ESE 5 7 30.63 1037 10 16 N/A
2:56 pm 14:56 Sunny 7 -13.9 -1 -18.3 70 70 SE 6 9 30.63 1037 10 16 N/A
3:56 pm 15:56 Sunny 7 -13.9 -2 -18.9 66 66 E 6 9 30.63 1037 10 16 N/A
4:56 pm 16:56 Sunny 6 -14.4 -1 -18.3 73 73 SE 6 9 30.63 1037 10 16 N/A
5:56 pm 17:56 Clear 2 -16.7 -2 -18.9 83 83 E 5 7 30.63 1037 10 16 N/A
6:56 pm 18:56 Clear 1 -17.2 -3 -19.4 83 83 E 5 7 30.64 1038 10 16 N/A
7:56 pm 19:56 Clear 1 -17.2 -3 -19.4 83 83 ESE 6 9 30.63 1037 10 16 N/A
8:56 pm 20:56 Clear N/A -4 -20 83 83 E 8 13 30.61 1037 10 16 N/A
9:56 pm 21:56 Clear 4 -15.6 -2 -18.9 76 76 ESE 9 15 30.61 1037 10 16 N/A
10:56 pm 22:56 Clear 5 -15 -2 -18.9 72 72 ESE 12 19 30.59 1036 10 16 N/A
11:56 pm 23:56 Clear 6 -14.4 N/A 76 76 ESE 10 17 30.60 1036 10 16 N/A

Powered by AerisWeather